Regional Weather Roundup
Issued by NWS Charleston, SC

Current Version | Previous Version | Text Only | Print | Product List | Glossary Off
Versions: 1 2 3 4 5 6 7 8 9 10 11 12 13 14 15 16 17 18 19 20 21 22 23 24 25 26 27 28 29 30 31 32 33 34 35 36 37 38 39 40 41 42 43 44 45 46 47 48 49 50

000
ASUS42 KCHS 020310
RWRCHS
REGIONAL WEATHER ROUNDUP
NATIONAL WEATHER SERVICE CHARLESTON SC
1100 PM EDT MON SEP 01 2014

NOTE: "FAIR" INDICATES FEW OR NO CLOUDS BELOW 12,000 FEET WITH NO
SIGNIFICANT WEATHER AND/OR OBSTRUCTIONS TO VISIBILITY.

NOT ALL STATIONS ARE QUALITY CONTROLLED BY THE NATIONAL
WEATHER SERVICE. USE DATA WITH CAUTION...ESPECIALLY
DEWPOINT OBSERVATIONS.

SCZ027-030-031-034>040-042>050-020400-
...SOUTH CAROLINA...

CITY           SKY/WX    TMP DP  RH WIND       PRES   REMARKS
N CHARLESTON   MOCLDY    82  76  81 SW6       30.09S
WATERFRONT PRK   N/A     82 N/A N/A S7          N/A
FORT JOHNSON   NOT AVBL
MOUNT PLEASANT FAIR      81  77  89 S3        30.09S
JOHNS ISLAND   CLEAR     82  81  94 S6        30.10R HX  95
PINOPOLIS        N/A     82  75  78 S5        30.01R
MONCKS CORNER    N/A     81  79  94 SW5       30.08S
SUMMERVILLE    FAIR      77  77 100 CALM      30.10S
BEAUFORT MCAS  PTCLDY    82  76  81 SW3       30.10R
BEAUFORT ARPT  FAIR      81  79  94 S3        30.10R
HILTON HEAD IS MOCLDY    82  79  89 S6        30.12R HX  93
GEORGETOWN     NOT AVBL
WALTERBORO     MOCLDY    79 N/A N/A S5        30.10S
ORANGEBURG     MOCLDY    78  72  81 CALM      30.10R
BARNWELL       FAIR      77  73  88 NW3       30.10S
AIKEN          FAIR      77  77 100 SW5       30.14R
MANNING        FAIR      82  81  94 W3        30.11R HX  95
KINGSTREE      NOT AVBL
COLUMBIA       CLOUDY    78  73  84 CALM      30.09R
SUMTER         CLOUDY    78  76  93 S2        30.08R
FLORENCE       CLOUDY    80  72  76 S5        30.09R
MYRTLE BEACH   NOT AVBL
N MYRTLE BEACH PTCLDY    83  75  77 S12       30.09R HX  90

$$

GAZ063-065-086>088-099>101-113>116-118-119-134-136>141-150-020400-
...GEORGIA...

CITY           SKY/WX    TMP DP  RH WIND       PRES   REMARKS
SAVANNAH ARPT  MOCLDY    82  76  81 S5        30.11R
HUNTER AAF     PTCLDY    82  77  85 S3        30.09R
FORT STEWART   MOCLDY    81  75  83 SE1       30.10R
STATESBORO     NOT AVBL
SYLVANIA       MOCLDY    82  79  90 CALM      30.11S HX  92
CLAXTON        NOT AVBL
THOMSON        CLOUDY    77  76  98 SW3       30.16S
AUGUSTA-BUSH   CLOUDY    76  75  97 SW3       30.09S
AUGUSTA-DANIEL CLOUDY    79  74  84 S3        30.11S
SWAINSBORO     FAIR      82  75  78 CALM      30.12S
VIDALIA          N/A     81  73  78 CALM      30.11S
ALMA           MOCLDY    78  69  73 SE3       30.10R
WAYCROSS       CLOUDY    81  77  88 CALM      30.10S
JESUP            N/A     82  73  74 CALM      30.11S
BRUNSWICK      MOCLDY    82  73  74 SW3       30.11S
SAINT SIMONS   PTCLDY    83  74  74 S7        30.10S

$$

SCZ027-028-034-036>038-045-046-048>050-GAZ119-141-020400-
...LAKE AND SUPPLEMENTAL COASTAL OBSERVATIONS...

STATION/POSITION TIME  TEMP    WIND        PRES    WAVE   SWELL
                       AIR SEA DIR/SP/G            HT/PER HT/PER/DIR
                 (UTC) (F)     (DEG/KT/KT) (MB)    (FT/S) (FT/S/D)
UPR LAKE MARION  NOT AVBL
WINYAH BAY       0200   81     220/  3     1018.0S
LAKE MURRAY      0200   81     190/  7/  9 1017.9R
ACE BASIN NERRS  0200   82        CALM     1019.0S
FORT PULASKI     0300   83     170/  3/  7 1019.8R
SAPELO ISLAND    0200   83     160/  5     1020.0R

$$

ANZ835-935-AMZ111-154-330-350-352-354-374-450-454-472-020400-
...C-MAN AND BUOY OBSERVATIONS...

STATION/POSITION TIME  TEMP    WIND        PRES    WAVE   SWELL
                       AIR SEA DIR/SP/G            HT/PER HT/PER/DIR
                 (UTC) (F)     (DEG/KT/KT) (MB)    (FT/S) (FT/S/D)
FOLLY BEACH CMAN 0200   84     170/  9/ 10 1019.4R
BUOY 41004       0300   83 84  180/ 10/ 12 1018.8F   2/ 8   2/ 8
BUOY 41008       0300   84 85  160/ 10/ 12 1019.5R   2/ 9   2/ 80/ 9
5E ST. MARYS GA  0300      85                N/A     2/ 8
FRYING PAN BUOY  NOT AVBL
BUOY 41025       0300   82     210/ 17/ 19 1018.1F   4/ 4   2/110/ 8
CAPE LOOKOUT NC  0200   81     220/  8/ 11 1018.7R
BUOY 41002       0215   82 84  210/ 10/ 14 1021.5R   3/12   3/ 60/12
BUOY 41010       0300   83 85  130/  6/  8 1020.1R   3/ 8   3/ 80/ 8
BUOY 41012       NOT AVBL
ST AUGUSTINE FL  0300   83     170/ 14/ 14 1020.5R
CAPERS NEARSHORE 0200   83     200/ 12/ 12   N/A
FRIPP NEARSHORE  NOT AVBL


$$


USA.gov is the U.S. government's official web portal to all federal, state and local government web resources and services.